Regional Weather Roundup
Issued by NWS Albany, NY

Home | Current Version | Previous Version | Text Only | Print | Product List | Glossary On
Versions: 1 2 3 4 5 6 7 8 9 10 11 12 13 14 15 16 17 18 19 20 21 22 23 24 25 26 27 28 29 30 31 32 33 34 35 36 37 38 39 40 41 42 43 44 45 46 47 48 49 50
000
ASUS41 KALY 181810
RWRALY

NEW YORK STATE HOURLY WEATHER ROUNDUP
NATIONAL WEATHER SERVICE ALBANY NY
200 PM EDT FRI AUG 18 2017

NOTE: "FAIR" INDICATES FEW OR NO CLOUDS BELOW 12,000 FEET WITH NO
SIGNIFICANT WEATHER AND/OR NO OBSTRUCTIONS TO VISIBILITY.

NYZ032-033-038>043-046>054-057>066-NYZ062>081-082-084-181900-
EAST


CITY           SKY/WX    TMP DP  RH WIND       PRES   REMARKS
ALBANY         NOT AVBL
GLENS FALLS    LGT RAIN  73  71  93 S7        29.79S
POUGHKEEPSIE   CLOUDY    79  72  79 VRB6      29.82F
NEWBURGH       CLOUDY    79  75  89 SW7       29.85F
MONTGOMERY     CLOUDY    79  73  82 SW6       29.83F
WHITE PLAINS   CLOUDY    79  76  90 S7        29.85F FOG
ISLIP          CLOUDY    80  76  87 S13G23    29.85F
NEW YORK CITY  LGT RAIN  81  77  88 S13       29.83F
CENTRAL PARK   CLOUDY    79  76  90 VRB5      29.86F
$$

NYZ005>009-017-018-044>046-055-056-181900-
CENTRAL


CITY           SKY/WX    TMP DP  RH WIND       PRES   REMARKS
FULTON         SUNNY     86  69  56 SW6       29.73F HX  90
SYRACUSE       PTSUNNY   86  67  52 SW12      29.73F
ROME           PTSUNNY   84  70  62 SW14      29.76F
ELMIRA         CLOUDY    82  73  74 SW10      29.77F
BINGHAMTON     CLOUDY    75  72  90 SW8       29.83F
MONTICELLO     LGT RAIN  73  72  94 S8        29.87F
$$

NYZ026>034-041>043-087-181900-
NORTH


CITY           SKY/WX    TMP DP  RH WIND       PRES   REMARKS
WATERTOWN      SUNNY     83  71  67 SW15G23   29.72F
FORT DRUM      NOT AVBL
OGDENSBURG     FAIR      85  71  62 SW9G22    29.69F HX  90
MASSENA        MOSUNNY   84  72  67 SW8       29.69F
SARANAC LAKE   MOSUNNY   78  69  73 SW12      29.77S
PLATTSBURGH    MOSUNNY   76  68  76 SE17      29.72F
$$

NYZ001>004-010>016-019>021-085-181900-
WEST


CITY           SKY/WX    TMP DP  RH WIND       PRES   REMARKS
NIAGARA FALLS  MOSUNNY   82  64  54 SW20G28   29.72F
BUFFALO        MOSUNNY   80  63  55 W23G29    29.74S
DUNKIRK        LGT RAIN  78  68  71 SW20G29   29.77S
JAMESTOWN      PTSUNNY   79  62  56 SW15      29.81F
WELLSVILLE     PTSUNNY   81  64  56 W10G18    29.83F
ROCHESTER      MOSUNNY   85  66  53 W12       29.72F
PENN YAN       MOSUNNY   84  66  54 S7        29.76F
$$

             KEY
       WCI = WIND CHILL INDEX
       VSB = VISIBILITY
       HX  = HEAT INDEX
$$



USA.gov is the U.S. government's official web portal to all federal, state and local government web resources and services.